Other Public Products
Issued by NWS Grand Forks, ND

Home | Current Version | Previous Version | Graphics & Text | Print | Product List | Glossary On
Versions: 1 2 3 4 5 6 7 8 9 10 11 12 13 14 15 16 17 18 19 20 21 22 23 24 25 26 27 28 29 30 31 32 33 34 35 36 37 38 39 40 41 42 43 44 45 46 47 48 49 50
459
FPUS83 KFGF 230410
OPUFGF
PRAIRIE TO PINES WEATHER ROUNDUP
NATIONAL WEATHER SERVICE EASTERN NORTH DAKOTA/GRAND FORKS ND
1100 PM CDT SUN APR 22 2018

 **SATELLITE DATA USED TO AUGMENT SKY COVER AT AUTOMATED STATIONS**
 *****  WEATHER ACROSS EASTERN NORTH DAKOTA  *****

CITY           SKY/WX    TMP DP  RH WIND       PRES   REMARKS
GRAND FORKS    CLOUDY    52  45  77 S9        30.11R
GRND FORKS AFB CLOUDY    53  43  67 SW7       30.11R
GRND FORKS NWS   N/A     54  44  69 S7        30.09R
BUXTON           N/A     51  46  83 S10         N/A
DEVILS LAKE    CLOUDY    46  37  71 CALM      30.11S
FARGO          FAIR      51  37  58 S17       30.17R
WAHPETON ARPT  FAIR      45  36  70 S10       30.21S
$$

 *****  WEATHER ACROSS CENTRAL AND WESTERN NORTH DAKOTA  *****

CITY           SKY/WX    TMP DP  RH WIND       PRES   REMARKS
JAMESTOWN      FAIR      50  38  63 S13       30.13R
BISMARCK       CLOUDY    53  39  59 E5        30.12S
MINOT          FAIR      52  32  46 S9        30.09S
MINOT AFB      FAIR      45  35  66 SW12      30.08R
GARRISON         N/A     44  35  70 CALM      30.11S
WILLISTON      FAIR      52  26  36 NW13      30.12R
DICKINSON      FAIR      48  26  42 E7        30.10R
HETTINGER      MOCLDY    51  31  46 NE7       30.12R
$$

 *****  OTHER OBSERVATIONS NORTHEAST NORTH DAKOTA  *****

CITY           SKY/WX    TMP DP  RH WIND       PRES   REMARKS
WALHALLA       FAIR      57  37  47 SW7       30.07F
LANGDON        NOT AVBL
CAVALIER         N/A     50  41  71 SW7       30.07F
GRAFTON        NOT AVBL
CANDO          CLOUDY    43  41  93 S5        30.12R
FORT TOTTEN    NOT AVBL
ROLLA          FAIR      43  34  70 SW10      30.09S
RUGBY          NOT AVBL
 ***** THE ABOVE OBSERVATIONS ARE NON NWS ARE NOT QUALITY
        CONTROLLED AND MAY MIS-REPORT RAIN FOR SNOW...
$$

 *****  OTHER OBSERVATIONS SOUTHEAST NORTH DAKOTA *****

CITY           SKY/WX    TMP DP  RH WIND       PRES   REMARKS
COOPERSTOWN    MOCLDY    50  41  71 S13       30.13R
VALLEY CITY    NOT AVBL
OAKES            N/A     45  36  70 S12       30.17S
GWINNER          N/A     46  41  81 S10       30.17F
SHEYENNE NWR     N/A     46  40  78 S9        29.95S
BUFFALO          N/A     49  38  66 NE14        N/A
WYNDMERE       NOT AVBL
 ***** THE ABOVE OBSERVATIONS ARE NON NWS ARE NOT QUALITY
       CONTROLLED AND MAY MIS-REPORT RAIN FOR SNOW...
$$

  *****  WEATHER ACROSS NORTHERN MINNESOTA  *****

CITY           SKY/WX    TMP DP  RH WIND       PRES   REMARKS
FLAG ISLAND    FAIR      39  34  81 S7        30.08S
WARROAD        FAIR      54  45  71 SW9       30.10F
ROSEAU         FAIR      54  45  71 SW9       30.10S
HALLOCK        FAIR      50  45  81 S6        30.09S
THF RVR FALLS  NOT AVBL
HALSTAD        NOT AVBL
FOSSTON        FAIR      46  36  66 S13       30.17S
BAUDETTE       CLOUDY    50  40  68 S6        30.11F
WASKISH        FAIR      52  36  54 S3        30.15S
CROOKSTON      MOCLDY    54  43  66 S20       30.14S
$$
  *****  WEATHER ACROSS CENTRAL AND WEST MINNESOTA  *****

CITY           SKY/WX    TMP DP  RH WIND       PRES   REMARKS
BEMIDJI        FAIR      50  34  54 SW6       30.17S
PARK RAPIDS    FAIR      44  35  70 S7        30.20S
WADENA         FAIR      45  36  70 CALM      30.22S
DETROIT LAKES  FAIR      46  36  66 SW8       30.21S
MOORHEAD       FAIR      46  39  76 S10       30.19S
FERGUS FALLS   FAIR      43  36  75 S8        30.20S
ELBOW LAKE     FAIR      39  36  87 S9        30.23S
MORRIS MN      FAIR      43  37  81 S8        30.22F
STAPLES        FAIR      43  34  70 S6        30.23S
WHEATON        FAIR      46  36  66 S10       30.23F
$$
  *****  WEATHER ELSEWHERE ACROSS MINNESOTA  *****

CITY           SKY/WX    TMP DP  RH WIND       PRES   REMARKS
DULUTH         FAIR      46  27  47 CALM      30.22F
INTRNTL FALLS  FAIR      47  34  60 VRB3      30.14S
ELY            FAIR      46  27  46 S5        30.20S
CLOQUET        FAIR      43  27  52 CALM      30.23S
BRAINERD       FAIR      41  30  65 CALM      30.23S
HIBBING        FAIR      37  27  67 CALM      30.20F
ALEXANDRIA     FAIR      45  37  73 S7        30.24S
SAINT CLOUD    FAIR      43  37  79 CALM      30.24S
MINNEAPOLIS    FAIR      54  37  52 CALM      30.25S
$$

  *****  WEATHER ACROSS SOUTH DAKOTA  *****

CITY           SKY/WX    TMP DP  RH WIND       PRES   REMARKS
SIOUX FALLS    FAIR      45  38  76 E6        30.21F
BROOKINGS      FAIR      44  37  76 SE7       30.22F
WATERTOWN      FAIR      45  37  73 SE7       30.20S
HURON          FAIR      46  38  73 SE9       30.19R
SISSETON         N/A     44  37  76 S9        30.20S
ABERDEEN       FAIR      40  34  79 SE9       30.18S
MITCHELL       FAIR      47  40  76 SE6       30.20R
PIERRE         FAIR      47  39  74 SE8       30.14R
MOBRIDGE       FAIR      48  39  71 SE8       30.11S
RAPID CITY     FAIR      46  38  73 E6        30.09S
$$

  *****  SOME WEATHER IN NEARBY STATES *****

CITY           SKY/WX    TMP DP  RH WIND       PRES   REMARKS
GLASGOW MT     FAIR      47  29  49 N10       30.14R
GREAT FALLS MT FAIR      45  22  40 N12       30.19R
CHEYENNE WY    FAIR      46  36  68 S13       30.15R
SCOTTSBLUFF NE FAIR      45  42  89 SE10      30.13R
OMAHA NE       FAIR      53  30  41 CALM      30.16F
DES MOINES IA  FAIR      57  28  33 E6        30.18F
DAVENPORT IA   FAIR      51  26  37 E10       30.22F
CHICAGO IL     MOCLDY    46  28  49 NE12      30.23F
EAU CLAIRE WI  FAIR      50  27  40 SE7       30.26S
LA CROSSE WI   FAIR      46  31  55 CALM      30.26S
$$

  *****  SOME NATIONAL WEATHER *****

CITY           SKY/WX    TMP DP  RH WIND       PRES   REMARKS
LA GUARDIA NY  FAIR      51  30  44 S7        30.39R
RALEIGH NC     CLOUDY    59  35  40 SE9       30.33F
ATLANTA GA     RAIN      59  58  96 E17G33    30.01F FOG
NEW ORLEANS LA FAIR      64  57  78 NW13G20   29.97R
OKLAHOMA CITY  CLOUDY    53  47  79 N16G22    30.08R
ALBUQUERQUE NM MOCLDY    62  25  24 SE8       30.09R
SALT LAKE CITY FAIR      66  33  29 S8        29.92R
LOS ANGELES CA FAIR      60  57  89 W7        29.93R
BOISE ID       FAIR      55  27  34 NW13      30.03R
SEATTLE WA     FAIR      50  38  63 N9        30.32R
$$

*** WEATHER ACROSS MANITOBA...SASKATCHEWAN AND ONTARIO ***
                ***ONTARIO***

CITY           SKY/WX    TMP DP  RH WIND       PRES   REMARKS
GERALDTON      PTCLDY    41  16  36 S12       30.16F
THUNDER BAY    CLEAR     34  25  69 CALM      30.21F
SIOUX LOOKOUT  MOCLDY    48  28  46 S5        30.06F
TORONTO        CLEAR     46  21  36 NW3       30.38S
BIG TROUT LK   MOCLDY    45  30  57 SW10G18   29.81F
PICKLE LAKE    NOT AVBL
DRYDEN         CLOUDY    50  36  57 SW8       30.07F
KENORA         MOCLDY    48  39  71 SW8       30.07S
$$
                *** MANITOBA***

CITY           SKY/WX    TMP DP  RH WIND       PRES   REMARKS
BRANDON        MOCLDY    39  32  75 W8        30.07R
DAUPHIN        CLEAR     48  32  53 W14G22    30.00R
ISLAND LAKE    CLOUDY    48  32  53 SW13G18   29.75S
PILOT MOUND      N/A     39  30  70 SW6         N/A
THE PAS        CLOUDY    37  32  81 W22       29.86R
THOMPSON       FLURRIES  36  34  93 W12G18    29.64R
WINNIPEG       NOT AVBL
LYNN LAKE      FLURRIES  25  21  86 N10G20    29.80R WCI  15
CHURCHILL      FRZ RAIN  27  25  93 NE28G35   29.68S FOG     WCI  11
GILLAM         LGT RAIN  39  37  93 SW13      29.54S
$$
                ***SASKATCHEWAN***

CITY           SKY/WX    TMP DP  RH WIND       PRES   REMARKS
ESTEVAN        PTCLDY    41  27  56 NW7       30.13R
KINDERSLEY     CLOUDY    41  34  75 NW8       30.20R
LLOYDMINSTER   PTCLDY    36  30  80 NW8       30.18R
PRINCE ALBERT  MOCLDY    41  36  81 W9        30.08R
REGINA         CLEAR     43  32  65 NW14      30.14R
YORKTON        CLOUDY    43  36  75 W13       30.05S



USA.gov is the U.S. government's official web portal to all federal, state and local government web resources and services.